Weather in Koskovo

Russia / Vologda Oblast     59°53′11″N   45°59′16″E
temp.,
°C
wind,
m/s
gust,
m/s
humid.,
%
clouds,
%
prec.,
mm/h
press.,
hPa
HPBL,
m
24 january, mon
mon2400:00−15sw289788 0.0 1032134
03:00−15sw399639 0.0 1032183
06:00−16sw3109657 0.0 1032194
09:00−14sw4139492 0.0 1032304
12:00−10sw5158793 0.0 1030440
15:00−8sw51584100 0.0 1029581
18:00−8sw5168563 0.0 1028538
21:00−9sw5168498 0.0 1027500
25 january, tue
tue2500:00−9sw516825 0.0 1025488
03:00−10sw5178169 0.0 1024497
06:00−10sw6188092 0.0 1022494
09:00−10ssw6188129 0.0 1020514
12:00−8ssw61779100 0.0 1018616
15:00−8ssw5167920 0.0 1017604
18:00−10ssw5168312 0.0 1016523
21:00−10ssw4149049 0.0 1015494
26 january, wed
wed2600:00−11ssw41292100 0.0 1015399
03:00−14ssw3109368 0.1 1015285
06:00−15ssw3995100 0.1 1015247
09:00−15ssw3896100 0.1 1016216
12:00−12ssw2591100 0.1 1016239
15:00−11ssw2494100 0.2 1016225
18:00−12s149795 0.3 1017114
21:00−13ssw119884 0.4 101724
27 january, thu
thu2700:00−16wsw119982 0.1 101710
03:00−15wsw119974 0.1 101714
06:00−18wnw1110078 0.1 10179
09:00−19s0110084 0.1 101814
12:00−12s119292 0.1 1017172
15:00−12s009780 0.1 101710
18:00−14se119978 0.1 101612
21:00−14s259881 0.1 1016123
28 january, fri
fri2800:00−16sse129969 0.1 101544
03:00−18s129979 0.1 101627
06:00−17sse259879 0.1 1015108
09:00−18sse269966 0.1 1015111
12:00−14s249098 0.0 1014289
15:00−14sse229583 0.0 101456
18:00−20sse1110059 0.0 101416
21:00−22sse1110055 0.0 101417